Providence, RI

9:24 AM EDT on May 23, 2018 (GMT -0400)
Green State

Weather History for KPVD - January, 2013

Change the Weather History Date:

Wednesday, January 30, 2013

  Actual Average Record
Temperature  
Mean Temperature 47 °F 30 °F  
Max Temperature 60 °F 38 °F 62 °F (1914)
Min Temperature 34 °F 21 °F -2 °F (1965)
Degree Days  
Heating Degree Days 18 35  
Month to date heating degree days 1017 1074  
Since 1 July heating degree days 2857 3101  
Cooling Degree Days 0 0  
Month to date cooling degree days 0 0  
Year to date cooling degree days 0 0  
Moisture  
Dew Point 46 °F    
Average Humidity 90    
Maximum Humidity 100    
Minimum Humidity 80    
Precipitation  
Precipitation 0.02 in 0.12 in 0.80 in (1939)
Month to date precipitation 1.31 3.73  
Year to date precipitation 1.31 3.73  
Snow  
Snow 0.00 in 0.30 in 5.20 in (1966)
Month to date snowfall 6.5 8.7  
Since 1 July snowfall 17.1 18.9  
Snow Depth 0.00 in    
Sea Level Pressure  
Sea Level Pressure 29.88 in    
Wind  
Wind Speed 13 mph (SSW)    
Max Wind Speed 36 mph    
Max Gust Speed 46 mph    
Visibility 4 miles    
Events Fog , Rain    
T = Trace of Precipitation, MM = Missing Value Source: NWS Daily Summary

Daily Weather History Graph

Daily Weather History Graph

Search for Another Location

Airport or City:

Astronomy

Jan. 30, 2013 Rise Set
Actual Time 6:59 AM EST 4:59 PM EST
Civil Twilight 6:30 AM EST 5:28 PM EST
Nautical Twilight 5:56 AM EST 6:01 PM EST
Astronomical Twilight 5:24 AM EST 6:34 PM EST
Moon 8:58 PM EST (1/30) 8:22 AM EST (1/30)
Length of Visible Light 10h 58m
Length of Day
9h 59m
Waning Gibbous, 88% of the Moon is Illuminated
Jan 30
Waning Gibbous
Feb 3
Last Quarter
Feb 10
New
Feb 17
First Quarter
Feb 25
Full

Hourly Weather History & Observations

Time (EST) Temp. Windchill Dew Point Humidity Pressure Visibility Wind Dir Wind Speed Gust Speed Precip Events Conditions
12:20 AM 33.8 °F - 33.8 °F 100% 30.15 in 1.2 mi Calm Calm - 0.01 in   Overcast
12:27 AM 33.8 °F - 33.8 °F 100% 30.15 in 1.0 mi Calm Calm - 0.01 in   Light Drizzle
12:51 AM 34.0 °F - 33.1 °F 96% 30.15 in 1.8 mi Calm Calm - 0.01 in   Light Drizzle
1:18 AM 33.8 °F - 33.8 °F 100% 30.13 in 0.5 mi Calm Calm - 0.00 in Fog Fog
1:51 AM 34.0 °F - 33.1 °F 96% 30.12 in 0.8 mi Calm Calm - 0.00 in   Overcast
1:59 AM 33.8 °F - 33.8 °F 100% 30.12 in 1.0 mi Calm Calm - N/A   Overcast
2:51 AM 34.0 °F - 34.0 °F 100% 30.09 in 1.0 mi Calm Calm - N/A   Overcast
3:07 AM 33.8 °F - 33.8 °F 100% 30.08 in 0.5 mi Calm Calm - N/A Fog Fog
3:51 AM 34.0 °F - 34.0 °F 100% 30.06 in 0.5 mi Calm Calm - N/A Fog Fog
4:10 AM 35.6 °F - 33.8 °F 93% 30.04 in 1.0 mi Calm Calm - N/A   Overcast
4:51 AM 36.0 °F 33.3 °F 36.0 °F 100% 30.03 in 1.5 mi South 3.5 mph - N/A   Overcast
5:51 AM 37.9 °F - 37.9 °F 100% 30.01 in 1.8 mi Calm Calm - N/A   Overcast
5:59 AM 37.4 °F - 37.4 °F 100% 30.01 in 2.5 mi Calm Calm - N/A   Overcast
6:46 AM 39.2 °F 37.0 °F 39.2 °F 100% 29.99 in 3.0 mi SSE 3.5 mph - N/A   Overcast
6:51 AM 39.9 °F 37.8 °F 39.9 °F 100% 30.00 in 3.0 mi SSE 3.5 mph - N/A   Overcast
7:30 AM 42.8 °F 39.3 °F 41.0 °F 93% 29.97 in 3.0 mi SE 5.8 mph - N/A   Overcast
7:51 AM 43.0 °F 41.3 °F 43.0 °F 100% 29.96 in 2.5 mi SSE 3.5 mph - N/A   Overcast
8:39 AM 46.4 °F 42.9 °F 44.6 °F 93% 29.93 in 2.0 mi South 6.9 mph - N/A   Overcast
8:51 AM 46.9 °F - 46.0 °F 97% 29.93 in 2.5 mi South 5.8 mph - N/A   Overcast
9:40 AM 51.8 °F - 50.0 °F 94% 29.90 in 2.5 mi South 15.0 mph 19.6 mph N/A   Overcast
9:49 AM 53.6 °F - 51.8 °F 94% 29.89 in 5.0 mi South 17.3 mph 23.0 mph N/A   Overcast
9:51 AM 53.1 °F - 51.1 °F 93% 29.89 in 5.0 mi South 18.4 mph 25.3 mph N/A   Overcast
10:51 AM 53.1 °F - 52.0 °F 96% 29.87 in 5.0 mi South 13.8 mph 21.9 mph N/A   Overcast
11:51 AM 55.9 °F - 53.1 °F 90% 29.80 in 5.0 mi SSW 12.7 mph - N/A   Overcast
12:10 PM 57.2 °F - 53.6 °F 88% 29.78 in 5.0 mi SSW 20.7 mph 27.6 mph N/A   Overcast
12:51 PM 57.9 °F - 54.0 °F 87% 29.75 in 5.0 mi SSW 21.9 mph 28.8 mph N/A   Overcast
1:51 PM 57.9 °F - 54.0 °F 87% 29.74 in 7.0 mi SSW 17.3 mph 29.9 mph N/A   Overcast
2:33 PM 59.0 °F - 55.4 °F 88% 29.73 in 9.0 mi SSW 16.1 mph 27.6 mph N/A   Overcast
2:51 PM 59.0 °F - 55.0 °F 87% 29.73 in 8.0 mi SSW 20.7 mph 31.1 mph 0.01 in   Overcast
3:22 PM 57.2 °F - 55.4 °F 94% 29.71 in 9.0 mi SSW 21.9 mph 31.1 mph N/A   Overcast
3:51 PM 57.9 °F - 55.0 °F 90% 29.70 in 5.0 mi SSW 16.1 mph 26.5 mph 0.00 in   Light Drizzle
4:51 PM 57.9 °F - 55.0 °F 90% 29.70 in 7.0 mi SSW 17.3 mph 26.5 mph 0.00 in   Overcast
5:51 PM 59.0 °F - 55.0 °F 87% 29.68 in 9.0 mi SSW 20.7 mph 28.8 mph 0.00 in   Overcast
6:51 PM 59.0 °F - 55.0 °F 87% 29.65 in 8.0 mi SSW 23.0 mph 35.7 mph N/A   Overcast
7:51 PM 59.0 °F - 55.9 °F 90% 29.63 in 8.0 mi SSW 27.6 mph 42.6 mph 0.00 in Rain Light Rain
8:24 PM 59.0 °F - 55.4 °F 88% 29.61 in 7.0 mi SSW 24.2 mph 39.1 mph 0.01 in Rain Light Rain
8:51 PM 59.0 °F - 55.9 °F 90% 29.61 in 8.0 mi SSW 27.6 mph 42.6 mph 0.01 in   Light Drizzle
9:51 PM 57.9 °F - 55.0 °F 90% 29.59 in 6.0 mi SW 15.0 mph 33.4 mph 0.00 in   Overcast
10:51 PM 59.0 °F - 54.0 °F 83% 29.56 in 7.0 mi SSW 21.9 mph 32.2 mph N/A   Overcast
11:03 PM 59.0 °F - 53.6 °F 82% 29.55 in 7.0 mi SSW 23.0 mph 36.8 mph N/A   Overcast
11:51 PM 59.0 °F - 55.0 °F 87% 29.51 in 7.0 mi SSW 25.3 mph 46.0 mph N/A   Overcast